This demonstration page uses our WeatherBlox Daily Observations layout. Learn more.

Left ArrowRight Arrow

Hourly Observations for July 9, 2018

Temp ( °F °C ) Dew Point ( °F °C ) Humidity (%) Winds ( mph kmh ) Pressure ( in mb ) Visibility ( mi km ) Precip ( " mm )
12:15 am 00:15 Clear 64 18 64 18 100 100 Calm 30.21 1023 10 16 0.00 0.00
12:35 am 00:35 Clear 65 18.2 65 18.1 99 99 Calm 30.21 1023 10 16 0.00 0.00
12:55 am 00:55 Clear 64 17.9 64 17.9 100 100 Calm 30.21 1023 10 16 0.00 0.00
1:15 am 01:15 Clear 64 17.9 64 17.9 100 100 Calm 30.21 1023 10 16 0.00 0.00
1:35 am 01:35 Clear 63 17.3 63 17.3 100 100 Calm 30.21 1023 10 16 0.00 0.00
1:55 am 01:55 Clear 63 17.3 63 17.3 100 100 Calm 30.21 1023 10 16 0.00 0.00
2:15 am 02:15 Clear 63 17.1 63 17.1 100 100 Calm 30.24 1024 10 16 0.00 0.00
2:35 am 02:35 Clear 62 16.8 62 16.8 100 100 Calm 30.24 1024 10 16 0.00 0.00
2:55 am 02:55 Clear 62 16.8 62 16.8 100 100 Calm 30.24 1024 10 16 0.00 0.00
3:15 am 03:15 Clear 62 16.8 62 16.8 100 100 Calm 30.24 1024 10 16 0.00 0.00
3:35 am 03:35 Clear 62 16.6 62 16.6 100 100 Calm 30.24 1024 10 16 0.00 0.00
3:55 am 03:55 Clear 62 16.6 62 16.6 100 100 Calm 30.24 1024 10 16 0.00 0.00
4:15 am 04:15 Clear 62 16.8 62 16.8 100 100 Calm 30.24 1024 10 16 0.00 0.00
4:35 am 04:35 Clear 62 16.6 62 16.6 100 100 Calm 30.21 1023 10 16 0.00 0.00
4:55 am 04:55 Clear 62 16.4 62 16.4 100 100 Calm 30.21 1023 10 16 0.00 0.00
5:15 am 05:15 Clear with Mist and Fog 62 16.4 62 16.4 100 100 Calm 30.21 1023 4 6 0.00 0.00
5:35 am 05:35 Partly Cloudy 61 16.3 61 16.3 100 100 Calm 30.24 1024 7 11 0.00 0.00
5:55 am 05:55 Partly Cloudy 62 16.4 62 16.4 100 100 Calm 30.24 1024 10 16 0.00 0.00
6:15 am 06:15 Partly Cloudy 61 16.1 61 16.1 100 100 Calm 30.24 1024 10 16 0.00 0.00
6:35 am 06:35 Partly Cloudy 61 16.2 61 16.2 100 100 Calm 30.24 1024 7 11 0.00 0.00
6:55 am 06:55 Partly Cloudy 61 16.3 61 16.3 100 100 Calm 30.24 1024 10 16 0.00 0.00
7:15 am 07:15 Sunny 62 16.8 62 16.8 100 100 Calm 30.24 1024 10 16 0.00 0.00
7:35 am 07:35 Sunny 64 17.8 64 17.8 100 100 Calm 30.24 1024 10 16 0.00 0.00
7:55 am 07:55 Sunny 67 19.2 67 19.2 100 100 Calm 30.24 1024 7 11 0.00 0.00
8:15 am 08:15 Sunny 69 20.8 69 20.3 97 97 Calm 30.24 1024 10 16 0.00 0.00
8:35 am 08:35 Sunny 73 22.5 70 21.3 93 93 Calm 30.24 1024 10 16 0.00 0.00
8:55 am 08:55 Sunny 75 23.7 71 21.5 88 88 Calm 30.21 1023 10 16 0.00 0.00
9:15 am 09:15 Sunny 76 24.6 71 21.8 84 84 SW 3 6 30.21 1023 10 16 0.00 0.00
9:35 am 09:35 Sunny 77 25.2 71 21.7 81 81 Calm 30.21 1023 10 16 0.00 0.00
9:55 am 09:55 Sunny 79 26 71 21.8 78 78 SW 6 9 30.21 1023 10 16 0.00 0.00
10:15 am 10:15 Sunny 80 26.5 72 22.1 77 77 SW 7 11 30.21 1023 10 16 0.00 0.00
10:35 am 10:35 Sunny 80 26.9 73 22.5 77 77 SW 5 7 30.21 1023 10 16 0.00 0.00
10:55 am 10:55 Sunny 81 27.4 73 22.7 76 76 WSW 8 13 30.21 1023 10 16 0.00 0.00
11:15 am 11:15 Partly Cloudy 81 27.2 72 22.3 75 75 WSW 9 15 30.21 1023 10 16 0.00 0.00
11:35 am 11:35 Mostly Cloudy 82 28 72 22.4 72 72 WSW 8 13 30.21 1023 10 16 0.00 0.00
11:55 am 11:55 undefined N/A N/A N/A undefined N/A N/A N/A 0.00 0.00
12:15 pm 12:15 undefined N/A N/A N/A undefined N/A N/A N/A 0.00 0.00
12:35 pm 12:35 undefined N/A N/A N/A undefined N/A N/A N/A 0.00 0.00
12:55 pm 12:55 undefined N/A N/A N/A undefined N/A N/A N/A 0.00 0.00
1:15 pm 13:15 Partly Cloudy 83 28.3 71 21.4 66 66 W 7 11 30.18 1022 10 16 0.00 0.00
1:35 pm 13:35 Partly Cloudy 84 29 71 21.5 64 64 WNW 8 13 30.18 1022 10 16 0.00 0.00
1:55 pm 13:55 Mostly Cloudy 85 29.3 71 21.8 64 64 WNW 6 9 30.18 1022 10 16 0.00 0.00
2:15 pm 14:15 Partly Cloudy 85 29.2 72 22 65 65 W 7 11 30.18 1022 10 16 0.00 0.00
2:35 pm 14:35 Partly Cloudy 84 29 71 21.4 64 64 WNW 7 11 30.18 1022 10 16 0.00 0.00
2:55 pm 14:55 Partly Cloudy 85 29.3 71 21.5 63 63 W 9 15 30.18 1022 10 16 0.00 0.00
3:15 pm 15:15 Sunny 85 29.4 71 21.8 64 64 W 8 13 30.18 1022 10 16 0.00 0.00
3:35 pm 15:35 Partly Cloudy 85 29.5 70 21.1 61 61 W 8 13 30.15 1021 10 16 0.00 0.00
3:55 pm 15:55 Partly Cloudy 86 29.8 71 21.8 62 62 NW 5 7 30.15 1021 10 16 0.00 0.00
4:15 pm 16:15 Sunny 85 29.6 70 21.2 61 61 W 9 15 30.15 1021 10 16 0.00 0.00
4:35 pm 16:35 Partly Cloudy 86 30.2 70 21.1 58 58 W 6 9 30.15 1021 10 16 0.00 0.00
4:55 pm 16:55 Sunny 85 29.6 71 21.5 62 62 NNW 6 9 30.12 1020 10 16 0.00 0.00
5:15 pm 17:15 Sunny 86 29.8 71 21.4 61 61 NW 8 13 30.12 1020 10 16 0.00 0.00
5:35 pm 17:35 Sunny 86 29.8 71 21.4 61 61 W 6 9 30.12 1020 10 16 0.00 0.00
5:55 pm 17:55 Sunny 85 29.7 70 21.3 61 61 W 5 7 30.12 1020 10 16 0.00 0.00
6:15 pm 18:15 Sunny 85 29.6 70 21.1 60 60 W 6 9 30.12 1020 10 16 0.00 0.00
6:35 pm 18:35 Sunny 85 29.6 70 21.2 61 61 W 8 13 30.12 1020 10 16 0.00 0.00
6:55 pm 18:55 Sunny 85 29.5 69 20.8 60 60 WSW 6 9 30.12 1020 10 16 0.00 0.00
7:15 pm 19:15 Sunny 84 29.1 69 20.6 60 60 WSW 6 9 30.12 1020 10 16 0.00 0.00
7:35 pm 19:35 Sunny 84 29 70 21.1 62 62 WSW 6 9 30.12 1020 10 16 0.00 0.00
7:55 pm 19:55 Sunny 83 28.6 70 21 64 64 WSW 3 6 30.12 1020 10 16 0.00 0.00
8:15 pm 20:15 Sunny 83 28.1 71 21.5 67 67 W 3 6 30.12 1020 10 16 0.00 0.00
8:35 pm 20:35 Sunny 82 27.6 71 21.9 71 71 W 3 6 30.12 1020 10 16 0.00 0.00
8:55 pm 20:55 Sunny 79 26.2 73 22.8 82 82 Calm 30.12 1020 10 16 0.00 0.00
9:15 pm 21:15 Sunny 77 24.9 73 22.9 89 89 Calm 30.09 1019 10 16 0.00 0.00
9:35 pm 21:35 Clear 75 23.7 73 22.5 93 93 SW 3 6 30.09 1019 10 16 0.00 0.00
9:55 pm 21:55 Clear 73 23 72 22 94 94 SW 3 6 30.09 1019 10 16 0.00 0.00
10:15 pm 22:15 Clear 72 22.4 71 21.6 95 95 SW 3 6 30.09 1019 10 16 0.00 0.00
10:35 pm 22:35 Clear 71 21.6 71 21.5 99 99 Calm 30.15 1021 10 16 0.00 0.00
10:55 pm 22:55 Clear 71 21.5 70 21.2 98 98 Calm 30.15 1021 10 16 0.00 0.00
11:15 pm 23:15 Clear 70 21 70 21 100 100 Calm 30.15 1021 10 16 0.00 0.00
11:35 pm 23:35 Clear 69 20.8 69 20.5 98 98 Calm 30.15 1021 10 16 0.00 0.00
11:55 pm 23:55 Clear 70 21 69 20.7 98 98 Calm 30.15 1021 10 16 0.00 0.00

Powered by AerisWeather